sat.trackr.live / text

‹ back to catalog

STARLINK-3897

NORAD 52537 · 2022-051E

PAYLOAD ACTIVE UNKNOWN

§ Identity

Operator
Country
US
Launch date
2022-05-13
Launch site
AFWTR
Launch vehicle
Mass (kg)
RCS (m²)

Purposes: comms

External: N2YO · Heavens-Above · Gunter

§ Orbital elements

Epoch: 2026-09-20T04:41:27.197952Z

Period
93.85 min
Inclination
53.1601°
Eccentricity
0.0001356
Mean motion
15.34392459 rev/d
Perigee alt
461.8 km
Apogee alt
463.7 km
Semi-major
6,840.9 km
B*
3.8329e-5
RAAN
323.4970°
Arg perigee
91.7864°
Mean anomaly
268.3294°
Rev number
24,097

§ Raw data

STARLINK-38971 52537U 22051E   26263.19545368  .00000919  00000+0  38329-4 0  99992 52537  53.1601 323.4970 0001356  91.7864 268.3294 15.34392459240979

JSON: /api/v1/satellites/52537 · /tle

For live sub-satellite position, see the globe view (requires WebGL).

§ Visibility from observer

Set your observer location to see the next 7 days of passes ≥ 10°. The values pass through the URL so the page stays shareable.

No JS? Fill the form by hand. The geolocation button needs JavaScript.